Weather History for KGLR - February, 2012

Change the Weather History Date:

Saturday, February 4, 2012

  Actual Average Record
Temperature  
Mean Temperature 24 °F -  
Max Temperature 37 °F 25 °F 51 °F (1991)
Min Temperature 10 °F 9 °F -23 °F (1978)
Degree Days  
Heating Degree Days 42    
Moisture  
Dew Point 23 °F    
Average Humidity 84    
Maximum Humidity 100    
Minimum Humidity 65    
Precipitation  
Precipitation 0.00 in - - ()
Sea Level Pressure  
Sea Level Pressure 30.26 in    
Wind  
Wind Speed 3 mph (West)    
Max Wind Speed 13 mph    
Max Gust Speed -    
Visibility 10 miles    
Events      
Averages and records for this station are not official NWS values.
T = Trace of Precipitation, MM = Missing Value Source: NWS Daily Summary

Daily Weather History Graph

Daily Weather History Graph

Search for Another Location

Airport or City:

Trip Planner

Search our weather history database for the weather conditions in past years. The results will help you decide how hot, cold, wet, or windy it might be!

Date:

Astronomy

Feb. 04, 2012 Rise Set
Actual Time 7:55 AM EST 5:50 PM EST
Civil Twilight 7:24 AM EST 6:21 PM EST
Nautical Twilight 6:49 AM EST 6:56 PM EST
Astronomical Twilight 6:15 AM EST 7:30 PM EST
Moon 2:41 PM EST (2/4) 5:25 AM EST (2/4)
Length of Visible Light 10h 56m
Length of Day
9h 54m
Waxing Gibbous, 89% of the Moon is Illuminated
Feb 4
Waxing Gibbous
Feb 7
Full
Feb 14
Last Quarter
Feb 21
New
Feb 29
First Quarter

Hourly Weather History & Observations

Time (EST) Temp. Windchill Dew Point Humidity Pressure Visibility Wind Dir Wind Speed Gust Speed Precip Events Conditions
12:53 AM 15.1 °F 9.4 °F 12.9 °F 91% 30.43 in 10.0 mi West 3.5 mph - N/A   Clear
1:53 AM 17.1 °F - 15.1 °F 92% 30.41 in 10.0 mi Calm Calm - N/A   Clear
2:53 AM 14.0 °F - 10.9 °F 88% 30.40 in 10.0 mi Calm Calm - N/A   Clear
3:53 AM 12.0 °F - 9.0 °F 88% 30.39 in 10.0 mi Calm Calm - N/A   Clear
4:16 AM 15.8 °F - 12.2 °F 86% 30.32 in 10.0 mi Calm Calm - N/A   Partly Cloudy
4:48 AM 15.8 °F - 14.0 °F 93% 30.33 in 9.0 mi Calm Calm - N/A   Mostly Cloudy
4:53 AM 16.0 °F - 14.0 °F 92% 30.40 in 9.0 mi Calm Calm - N/A   Mostly Cloudy
5:53 AM 15.1 °F - 12.9 °F 91% 30.40 in 10.0 mi Calm Calm - N/A   Mostly Cloudy
6:08 AM 17.6 °F - 15.8 °F 93% 30.33 in 9.0 mi Calm Calm - N/A   Scattered Clouds
6:53 AM 10.9 °F - 7.0 °F 84% 30.39 in 10.0 mi Calm Calm - N/A   Mostly Cloudy
7:21 AM 15.8 °F - 15.8 °F 100% 30.32 in 10.0 mi Calm Calm - N/A   Overcast
7:53 AM 18.0 °F - 17.1 °F 96% 30.38 in 10.0 mi Calm Calm - N/A   Overcast
8:53 AM 21.0 °F - 19.9 °F 96% 30.36 in 10.0 mi Calm Calm - N/A   Overcast
9:53 AM 25.0 °F 20.7 °F 24.1 °F 96% 30.34 in 10.0 mi WSW 3.5 mph - N/A   Mostly Cloudy
10:05 AM 26.6 °F 18.2 °F 24.8 °F 93% 30.27 in 10.0 mi SW 8.1 mph - N/A   Scattered Clouds
10:53 AM 30.9 °F 21.2 °F 27.0 °F 85% 30.32 in 10.0 mi SW 12.7 mph - N/A   Scattered Clouds
11:02 AM 30.2 °F 21.3 °F 28.4 °F 93% 30.25 in 10.0 mi WSW 10.4 mph - N/A   Mostly Cloudy
11:29 AM 32.0 °F 24.2 °F 26.6 °F 80% 30.24 in 10.0 mi WSW 9.2 mph - N/A   Scattered Clouds
11:53 AM 34.0 °F 26.6 °F 26.1 °F 73% 30.29 in 10.0 mi West 9.2 mph - N/A   Scattered Clouds
12:53 PM 35.1 °F 29.3 °F 26.1 °F 70% 30.27 in 10.0 mi West 6.9 mph - N/A   Partly Cloudy
1:53 PM 36.0 °F 29.6 °F 27.0 °F 70% 30.24 in 10.0 mi WSW 8.1 mph - N/A   Clear
2:53 PM 37.0 °F 29.3 °F 27.0 °F 67% 30.22 in 10.0 mi WSW 11.5 mph - N/A   Clear
3:53 PM 37.9 °F 32.7 °F 27.0 °F 65% 30.19 in 10.0 mi West 6.9 mph - N/A   Clear
4:53 PM 36.0 °F 28.5 °F 27.0 °F 70% 30.18 in 10.0 mi WSW 10.4 mph - N/A   Clear
5:53 PM 35.1 °F 32.2 °F 26.1 °F 70% 30.18 in 10.0 mi WNW 3.5 mph - N/A   Partly Cloudy
6:53 PM 33.1 °F - 26.1 °F 75% 30.20 in 10.0 mi Calm Calm - N/A   Mostly Cloudy
7:53 PM 30.9 °F 27.5 °F 26.1 °F 82% 30.20 in 10.0 mi WNW 3.5 mph - N/A   Clear
8:21 PM 30.2 °F 26.7 °F 26.6 °F 86% 30.14 in 10.0 mi Variable 3.5 mph - N/A   Mostly Cloudy
8:45 PM 30.2 °F 26.7 °F 26.6 °F 86% 30.14 in 10.0 mi Variable 3.5 mph - N/A   Overcast
8:53 PM 30.9 °F 27.5 °F 27.0 °F 85% 30.20 in 10.0 mi NW 3.5 mph - N/A   Overcast
9:07 PM 32.0 °F - 28.4 °F 87% 30.14 in 10.0 mi Calm Calm - N/A   Overcast
9:21 PM 32.0 °F 26.4 °F 28.4 °F 87% 30.14 in 10.0 mi NW 5.8 mph - N/A   Overcast
9:31 PM 32.0 °F - 28.4 °F 87% 30.14 in 10.0 mi Calm Calm - N/A   Overcast
9:38 PM 32.0 °F 28.7 °F 28.4 °F 87% 30.14 in 10.0 mi WNW 3.5 mph - N/A   Overcast
9:53 PM 32.0 °F - 28.9 °F 88% 30.19 in 10.0 mi Calm Calm - N/A   Overcast
10:53 PM 30.9 °F - 26.1 °F 82% 30.18 in 10.0 mi Calm Calm - N/A   Overcast
11:53 PM 30.9 °F 25.2 °F 25.0 °F 79% 30.18 in 10.0 mi Variable 5.8 mph - N/A   Overcast